KD5OH Weather Reports


time (UTC)temp
C
wind
direction
speed
KPH
gust
KPH
rain 1hr
cm
rain 24hr
cm
rain mn
cm
humidity
%
barometer
mb
20260507091635 7 279 0.0 6.4 0.00 0.00 0.00 44 1019.6
20260507090144 7 271 3.2 6.4 0.00 0.00 0.00 43 1019.4
20260507084635 7 215 1.6 3.2 0.00 0.00 0.00 42 1019.2
20260507083125 7 156 1.6 1.6 0.00 0.00 0.00 39 1018.8
20260507081633 7 270 0.0 1.6 0.00 0.00 0.00 38 1018.7
20260507080125 8 270 0.0 1.6 0.00 0.00 0.00 35 1018.8
20260507074635 9 220 3.2 9.7 0.00 0.00 0.00 30 1018.9
20260507073126 11 35 0.0 1.6 0.00 0.00 0.00 23 1018.7
20260507071636 12 64 0.0 3.2 0.00 0.00 0.00 24 1018.8
20260507070130 11 49 3.2 4.8 0.00 0.00 0.00 25 1018.9
20260507064639 11 69 1.6 3.2 0.00 0.00 0.00 25 1019.0
20260507063150 12 59 1.6 3.2 0.00 0.00 0.00 24 1019.1
20260507061622 11 354 0.0 1.6 0.00 0.00 0.00 25 1019.4
20260507060152 11 253 0.0 3.2 0.00 0.00 0.00 23 1019.3
20260507054639 12 100 1.6 3.2 0.00 0.00 0.00 21 1019.2
20260507053131 12 322 0.0 1.6 0.00 0.00 0.00 21 1019.1
20260507051640 14 71 0.0 1.6 0.00 0.00 0.00 19 1019.1
20260507050133 15 97 0.0 4.8 0.00 0.00 0.00 17 1019.0
20260507044622 15 118 6.4 11.3 0.00 0.00 0.00 16 1018.9
20260507043131 15 98 0.0 3.2 0.00 0.00 0.00 17 1018.7
20260507041643 16 239 0.0 3.2 0.00 0.00 0.00 16 1018.6
20260507040134 16 125 6.4 9.7 0.00 0.00 0.00 16 1018.4
20260507034625 14 123 3.2 4.8 0.00 0.00 0.00 20 1018.2
20260507033134 15 117 1.6 1.6 0.00 0.00 0.00 19 1018.0
20260507031623 15 102 1.6 1.6 0.00 0.00 0.00 19 1017.7
20260507030137 16 140 1.6 3.2 0.00 0.00 0.00 17 1017.4
20260507024626 16 118 1.6 3.2 0.00 0.00 0.00 17 1017.1
20260507023140 17 127 1.6 3.2 0.00 0.00 0.00 16 1016.9
20260507021629 18 152 1.6 3.2 0.00 0.00 0.00 15 1016.8
20260507020121 19 161 3.2 6.4 0.00 0.00 0.00 13 1016.6
20260507014629 21 222 3.2 4.8 0.00 0.00 0.00 11 1016.4
20260507013137 22 204 3.2 9.7 0.00 0.00 0.00 9 1015.9
20260507011631 23 225 3.2 9.7 0.00 0.00 0.00 9 1016.2
20260507010121 23 262 1.6 4.8 0.00 0.00 0.00 9 1016.1
20260507004634 23 289 4.8 9.7 0.00 0.00 0.00 9 1015.9
20260507003123 23 305 8.0 16.1 0.00 0.00 0.00 9 1015.6
20260507001634 24 249 9.7 16.1 0.00 0.00 0.00 9 1015.6
20260507000131 24 267 11.3 20.9 0.00 0.00 0.00 9 1015.3
20260506234621 24 287 9.7 16.1 0.00 0.00 0.00 9 1015.3
20260506233135 24 296 8.0 20.9 0.00 0.00 0.00 9 1015.2
20260506231624 24 284 11.3 22.5 0.00 0.00 0.00 9 1015.2
20260506230139 24 248 11.3 17.7 0.00 0.00 0.00 9 1015.3
20260506224630 23 222 8.0 19.3 0.00 0.00 0.00 10 1015.3
20260506223142 23 258 11.3 27.4 0.00 0.00 0.00 11 1015.4
20260506221634 23 285 4.8 16.1 0.00 0.00 0.00 11 1015.4
20260506220143 23 285 6.4 16.1 0.00 0.00 0.00 12 1015.7
20260506214633 23 240 11.3 25.7 0.00 0.00 0.00 11 1015.7
20260506213128 23 214 11.3 20.9 0.00 0.00 0.00 12 1016.1
20260506211702 22 35 3.2 17.7 0.00 0.00 0.00 13 1016.2
20260506210136 23 30 3.2 11.3 0.00 0.00 0.00 12 1016.4
20260506204628 23 294 1.6 14.5 0.00 0.00 0.00 12 1016.5
20260506203123 22 272 9.7 17.7 0.00 0.00 0.00 12 1016.7
20260506201636 22 300 8.0 24.1 0.00 0.00 0.00 13 1016.8
20260506200130 22 251 8.0 20.9 0.00 0.00 0.00 10 1016.9
20260506194643 22 272 1.6 12.9 0.00 0.00 0.00 15 1016.8
20260506193131 22 206 9.7 16.1 0.00 0.00 0.00 15 1017.0
20260506191629 22 298 8.0 20.9 0.00 0.00 0.00 14 1017.1
20260506190121 21 253 9.7 20.9 0.00 0.00 0.00 14 1017.2
20260506184634 21 247 6.4 17.7 0.00 0.00 0.00 16 1017.3
20260506183126 21 346 12.9 25.7 0.00 0.00 0.00 15 1017.5
20260506181636 20 216 6.4 17.7 0.00 0.00 0.00 14 1017.7
20260506180130 20 293 6.4 17.7 0.00 0.00 0.00 18 1017.9
20260506174620 20 259 9.7 22.5 0.00 0.00 0.00 17 1017.9
20260506173155 20 332 11.3 19.3 0.00 0.00 0.00 17 1018.0
20260506171622 20 267 11.3 19.3 0.00 0.00 0.00 18 1018.1
20260506170132 20 269 9.7 16.1 0.00 0.00 0.00 21 1018.2
20260506164624 19 277 12.9 25.7 0.00 0.00 0.00 22 1018.2
20260506163134 19 106 6.4 12.9 0.00 0.00 0.00 23 1018.3
20260506161646 18 221 3.2 16.1 0.00 0.00 0.00 26 1018.2
20260506160136 18 223 6.4 27.4 0.00 0.00 0.00 27 1018.2
20260506154627 18 224 8.0 16.1 0.00 0.00 0.00 28 1018.1
20260506153137 17 110 3.2 8.0 0.00 0.00 0.00 28 1018.2
20260506151627 17 260 3.2 12.9 0.00 0.00 0.00 29 1018.3
20260506150141 17 296 4.8 11.3 0.00 0.00 0.00 28 1018.3
20260506144650 17 322 1.6 11.3 0.00 0.00 0.00 30 1018.2
20260506143124 17 311 3.2 8.0 0.00 0.00 0.00 30 1018.3
20260506141633 17 248 3.2 6.4 0.00 0.00 0.00 30 1018.3
20260506140123 17 286 3.2 9.7 0.00 0.00 0.00 30 1018.1
20260506134638 16 312 1.6 6.4 0.00 0.00 0.00 33 1018.2
20260506133130 16 239 0.0 1.6 0.00 0.00 0.00 38 1018.1
20260506131644 12 118 0.0 1.6 0.00 0.00 0.00 45 1018.0
20260506130135 11 263 0.0 1.6 0.00 0.00 0.00 48 1017.9
20260506124626 10 32 0.0 3.2 0.00 0.00 0.00 46 1017.6
20260506123144 12 108 0.0 3.2 0.00 0.00 0.00 40 1017.5
20260506121657 12 291 0.0 1.6 0.00 0.00 0.00 41 1017.2
20260506120134 12 135 1.6 3.2 0.00 0.00 0.00 40 1016.9
20260506114627 12 286 1.6 3.2 0.00 0.00 0.00 40 1016.8
20260506113140 13 294 1.6 6.4 0.00 0.00 0.00 37 1016.7
20260506111633 13 33 4.8 8.0 0.00 0.00 0.00 39 1016.6
20260506110144 11 100 1.6 4.8 0.00 0.00 0.00 46 1016.5
20260506104637 11 44 0.0 3.2 0.00 0.00 0.00 45 1016.5
20260506103125 9 68 1.6 3.2 0.00 0.00 0.00 51 1016.3
20260506101633 10 73 0.0 3.2 0.00 0.00 0.00 50 1016.2
20260506100125 10 85 0.0 0.0 0.00 0.00 0.00 49 1016.1
20260506094634 10 85 0.0 0.0 0.00 0.00 0.00 47 1015.9
20260506093128 11 79 0.0 0.0 0.00 0.00 0.00 43 1015.9